Terminal Aerodrome Forecast
Issued by NWS

Home | Current Version | Previous Version | Text Only | Print | Product List | Glossary On
Versions: 1 2 3 4 5 6 7 8 9 10 11 12 13 14 15 16 17 18 19 20 21 22 23 24 25 26 27 28 29 30 31 32 33 34 35 36 37 38 39 40 41 42 43 44 45 46 47 48 49 50
000
FTAK31 PANC 251743
TAFASD
TAF
PASD 251743Z 2518/2618 34008KT P6SM FEW030 BKN150
     FM252000 08006KT P6SM SCT030 BKN045
     FM260300 08010KT P6SM VCSH BKN030 OVC050
     FM260900 09020G26KT 5SM -SN BR BKN015 OVC025
     FM261200 15012KT 6SM -SHSN BR BKN008 OVC012
      AMD LTD TO CLD VIS AND WIND=

USA.gov is the U.S. government's official web portal to all federal, state and local government web resources and services.